www.pogodaiklimat.ru

Погода и климат >> Архив погоды >> Индонезия >> Муаратевех


ПОГОДА в Муаратевехе

  • Прогноз погоды в Муаратевехе
  • Монитор погоды в Муаратевехе

АРХИВ ПОГОДЫ в Муаратевехе

Время (UTC), дата Ветер
(напр.,м/с)
 
Видим.   Явления Облачность Т
(С)
Тd
(С)
f
(%)
Тe
(С)
Тes
(С)
Комфортность P
(гПа)
Po
(гПа)
Тmin
(С)
Tmax
(С)
R
(мм)
R24
(мм)
S
(см)
00 14.06 штиль 0 5000 м мгла 9/8 300 м
[Sc Ac As Ci sp]
+25.8 +24.8 94 +37 +37 очень
душно
1011.9 1007.6 +24.8
03 14.06 штиль 0 8000 м мгла 8/5 360 м
[Sc Ac trans Ci sp]
+30.8 +24.8 70 +44 +51 опасность
перегрева
1011.1 1006.7
06 14.06 штиль 0 12 км 9/9 420 м
[Sc]
+33.1 +24.6 61 +46 +48 опасность
перегрева
1007.9 1003.6
09 14.06 штиль 0 12 км 8/5 420 м
[Sc Ac As Ci sp]
+32.1 +25.3 67 +46 +47 опасность
перегрева
1006.8 1002.5
12 14.06 штиль 0 8000 м зарница 5/4 360 м
[Cb cap Ac trans Ci sp]
+29.6 +26.1 82 +45 +45 опасность
перегрева
1009.0 1004.7 +34.4
15 14.06 С 2 6000 м осадки на расстоянии 9/5 300 м
[Cb cap Ac As Ci sp]
+26.0 +23.5 86 +35 +35 очень
душно
1011.4 1007.1 0.0
00 15.06 штиль 0 3000 м дымка {дождь} 10/10 210 м
[St]
+24.6 +23.9 96 +34 +34 очень
душно
1012.0 1007.7 +23.6 6
03 15.06 штиль 0 6000 м 10/9 300 м
[Sc As op]
+26.6 +24.8 90 +38 +38 очень
душно
1013.0 1008.7
06 15.06 штиль 0 8000 м осадки на расстоянии 10/8 300 м
[Sc As op]
+28.2 +24.9 82 +40 +41 очень
душно
1010.3 1006.0
09 15.06 штиль 0 10 км мгла 10/5 330 м
[Sc As op]
+28.3 +25.1 83 +41 +41 опасность
перегрева
1008.8 1004.5
12 15.06 штиль 0 9000 м 9/6 360 м
[Sc As op Ci sp]
+26.4 +25.2 93 +38 +38 очень
душно
1010.2 1005.9 +30.0
15 15.06 штиль 0 7000 м 9/5 360 м
[Sc Ac As Ci sp]
+25.6 +24.6 94 +36 +36 очень
душно
1012.1 1007.7
00 16.06 СВ 2 8000 м 8/6 360 м
[Sc Ac trans Ci sp]
+26.4 +24.6 90 +37 +38 очень
душно
1011.7 1007.3 +24.6
03 16.06 штиль 0 10 км 8/8 400 м
[Sc Ac trans Ci sp]
+30.2 +23.8 69 +42 +46 опасность
перегрева
1011.8 1007.4
06 16.06 штиль 0 13 км 6/5 450 м
[Sc Ac trans Ci sp]
+32.4 +23.8 61 +44 +53 опасность
перегрева
1008.7 1004.4
09 16.06 Ю 3 13 км осадки на расстоянии 5/4 450 м
[Cu Sc As op Ci fib]
+32.1 +24.7 65 +45 +46 опасность
перегрева
1007.8 1003.4
12 16.06 штиль 0 8000 м зарница 3/3 420 м
[Cb cap Ac As Ci fib]
+29.4 +25.7 81 +44 +44 опасность
перегрева
1009.9 1005.5 +34.0
15 16.06 СЗ 2 5000 м зарница 10/9 300 м
[Cb cap Ac As]
+25.0 +23.7 93 +34 +34 очень
душно
1012.5 1008.1
00 17.06 штиль 0 4000 м в посл. час дождь {гроза} 10/9 240 м
[Sc Ac As]
+24.2 +23.6 96 +33 +33 очень
душно
1012.9 1008.6 +23.8 2
03 17.06 штиль 0 8000 м в посл. час дождь 10/9 300 м
[Sc As op]
+26.5 +24.7 90 +38 +38 очень
душно
1012.8 1008.5 0.0
06 17.06 СВ 2 9000 м мгла {дождь} 10/9 330 м
[Sc Ac As]
+29.1 +24.0 74 +40 +41 очень
душно
1010.7 1006.4 0.0
09 17.06 штиль 0 12 км 9/5 360 м
[Sc Ac trans Ci sp]
+28.7 +24.8 79 +41 +42 опасность
перегрева
1009.7 1005.4
12 17.06 штиль 0 9000 м 6/3 400 м
[Sc Ac lent Ci sp]
+26.7 +25.2 91 +38 +38 очень
душно
1011.0 1006.7 +32.3
15 17.06 штиль 0 6000 м 5/1 400 м
[Sc Ac trans Ci sp]
+25.1 +24.4 96 +35 +35 очень
душно
1012.1 1007.7
00 18.06 штиль 0 5000 м мгла 9/4 150 м
[St Ac trans Ci sp]
+25.3 +24.3 94 +35 +37 очень
душно
1012.1 1007.7 +23.8 0.0
03 18.06 ЮВ 2 12 км 9/5 300 м
[Sc Ac trans Ci sp]
+30.2 +24.9 73 +43 +48 опасность
перегрева
1011.2 1006.9
06 18.06 штиль 0 12 км 9/6 360 м
[Sc Ac trans Ci sp]
+33.2 +24.4 60 +46 +51 опасность
перегрева
1008.8 1004.5
09 18.06 штиль 0 12 км 5/5 400 м
[Cu Sc Ac trans Ci sp]
+32.8 +24.9 63 +46 +48 опасность
перегрева
1007.3 1003.0
12 18.06 штиль 0 8000 м осадки на расстоянии 6/6 420 м
[Cb cap As op Ci sp]
+28.6 +25.9 85 +43 +43 опасность
перегрева
1008.7 1004.3 +33.8
15 18.06 штиль 0 7000 м зарница 6/5 420 м
[Cb cap Ac trans Cs]
+26.8 +25.0 90 +39 +39 очень
душно
1009.8 1005.4
00 19.06 штиль 0 4000 м осадки на расстоянии 10/8 330 м
[Sc Ac trans]
+24.3 +23.6 96 +33 +33 очень
душно
1011.8 1007.5 +23.8 28
03 19.06 штиль 0 9000 м мгла 9/9 400 м
[Sc Ac trans Ci sp]
+27.7 +24.8 84 +39 +42 очень
душно
1011.5 1007.2
06 19.06 З 2 11 км осадки на расстоянии 9/5 400 м
[Sc Ac As Ci sp]
+29.2 +24.9 78 +42 +47 опасность
перегрева
1009.7 1005.3
09 19.06 С 3 11 км осадки на расстоянии 9/8 360 м
[Sc Ac trans Ci sp]
+29.5 +24.9 76 +42 +42 опасность
перегрева
1008.1 1003.8
12 19.06 штиль 0 6000 м осадки на расстоянии 8/6
[Cb cap Ac As Ci sp]
+28.0 +24.6 82 +40 +40 очень
душно
1009.5 1005.2 +31.0
15 19.06 штиль 0 3000 м дымка 9/8 270 м
[Sc Ac As Cs]
+25.0 +24.2 95 +34 +34 очень
душно
1011.0 1006.7
00 20.06 ЮЗ 6 1000 м дождь 10/9 210 м
[Sc As op]
+23.5 +22.8 96 +31 +31 очень
душно
1012.9 1008.6 +23.4 24
03 20.06 штиль 0 5000 м мгла {дождь} 10/8 300 м
[Sc As op]
+27.0 +23.4 81 +37 +38 очень
душно
1012.7 1008.4 6
06 20.06 штиль 0 7000 м в посл. час дождь 9/8 360 м
[Sc As op Ci sp]
+27.6 +24.4 83 +39 +42 очень
душно
1009.9 1005.5 0.0
09 20.06 штиль 0 8000 м осадки на расстоянии 9/6 360 м
[Sc Ac As Ci sp]
+28.6 +24.5 79 +41 +41 опасность
перегрева
1008.6 1004.2
12 20.06 штиль 0 7000 м мгла 9/5 360 м
[Sc Ac As Ci sp]
+26.4 +25.0 92 +38 +38 очень
душно
1009.9 1005.6 +29.1
15 20.06 штиль 0 6000 м мгла 8/5 360 м
[Sc Ac As Ci sp]
+25.1 +24.1 94 +35 +35 очень
душно
1010.9 1006.6

 

Местоположение метеостанции Муаратевех (Индонезия): широта -0.95 долгота 114.90 высота над уровнем моря 60 м.

В архиве по умолчанию представлена погода в Муаратевехе за последнюю неделю. Архивные данные за месяц целиком и за предыдущие месяцы, начиная с января 2011 года, Вы можете получить, выбрав интересующий диапазон дат из раскрывающегося списка и нажав кнопку "Ввод!".


*Определитесь, кто Вы:
робот инопланетянин человек

Внимание! Время в таблицах - всемирное. Для получения местного времени необходимо прибавить поправку, которая равна 7 ч.

Смотрите также архив погоды в соседних городах и на ближайших метеорологических станциях:

Погода в Паоанкарая (Индонезия) (100 км)
Погода в Баликпапане (Индонезия) (225 км)
Погода в Самаринде (Индонезия) (253 км)
Погода в Банджармасине (Индонезия) (276 км)
Погода на Путусиббау (Индонезия) (295 км)
Погода в Котабару (Индонезия) (309 км)
Погода в Нангапинохе (Индонезия) (353 км)
Погода в Синтанге (Индонезия) (393 км)
Погода в Пангкалан-Буне (Индонезия) (406 км)
Погода в Танджунгредепе (Индонезия) (444 км)

Пояснения к столбцам:

Ветер - указаны скорость ветра в м/с - средняя за 10 мин, порывы в срок и между сроками (в фигурных скобках) и направление, откуда дует ветер: С - северный, СВ - северо-восточный, В - восточный, ЮВ - юго-восточный, Ю - южный, ЮЗ - юго-западный, З - западный, СЗ - северо-западный.
Видимость - горизонтальная дальность видимости в метрах или километрах. При видимости от 1 до 10 км при отсутствии осадков обычно наблюдается дымка, при ухудшении видимости до 1 км и менее - туман. В сухую погоду видимость может ухудшаться дымом, пылью или мглою.
Явления - указаны атмосферные явления, наблюдавшиеся в срок или в последний час перед сроком; фигурными скобками обозначены явления, наблюдавшиеся между сроками (за 1-3 часа до срока); квадратными скобками обозначены град или гололедные отложения с указанием их диаметра в мм.
Облачность - указаны через наклонную черту общая и нижняя облачность в баллах и высота нижней границы облаков в метрах; квадратными скобками обозначены формы облаков: Ci - перистые, Cs - перисто-слоистые, Cc - перисто-кучевые, Ac - высококучевые, As - высокослоистые, Sc - слоисто-кучевые, Ns - слоисто-дождевые, Cu - кучевые, Cb - кучево-дождевые. Подробнее классификацию облаков см. в Атласе облаков (PDF).
T - Температура воздуха - температура, измеренная на высоте 2 м над землей.
Td - Температура точки росы - температура, при понижении до которой содержащийся в воздухе водяной пар достигнет насыщения.
f - Относительная влажность воздуха - влажноcть воздуха, измеренная на высоте 2 м над землей.
Te - Эффективная температура - температура, которую ощущает одетый по сезону человек в тени. Характеристика душности погоды. При расчете учитывается влияние влажности воздуха и скорости ветра на теплоощущения человека.
Tes - Эффективная температура на солнце - температура, которую ощущает человек, с поправкой на солнечный нагрев. Характеристика знойности погоды. Зависит от высоты солнца над горизонтом, облачности и скорости ветра. Ночью, в пасмурную погоду, а также при ветре 12 м/с и более поправка равна нулю.
P - Атмосферное давление - приведенное к уровню моря атмосферное давление.
Po - Атмосферное давление - измеренное на уровне метеостанции атмосферное давление.
Tmin - Минимальная температура - минимум температуры воздуха на высоте 2 м над землей.
Tmax - Максимальная температура - максимум температуры воздуха на высоте 2 м над землей.
R - Количество осадков - Количество выпавших осадков за период времени, мм. При наведении курсора мыши на число - период времени, за который выпало указанное количество осадков.
R24 - Количество осадков - Количество выпавших осадков за 24 часа, мм.
S - Снежный покров - Высота снежного покрова, см. При наведении курсора мыши на число - состояние снежного покрова и степень покрытия местности в баллах.